Weather past 2 weeks in Jamestown, Saint Helena

Now
63 °F

Mild.


Feels Like: 63 °F
Forecast: 66 / 68 °F
Wind: 14 mph from Southeast

Location: Saint Helena Island

Current Time: Sep 1, 2014 at 2:07:30 PM

Latest Report: Sep 1, 2014 at 1:00 PM


Visibility: N/A

Pressure: 30.10 "Hg

Humidity: 75%

Dew point: 55 °F

Location of JamestownLocation

Historic Weather in Jamestown — Graph

°F

Jamestown temperature yesterday

Maximum temperature yesterday: 61 °F (at 11:00 AM)
Minimum temperature yesterday: 58 °F (at 9:00 AM)
Average temperature yesterday: 59 °F

Past Weeks' High & Low Weather Summary

 TemperatureHumidityPressure
High66 °F (Aug 21, 1:00 PM)100% (Aug 19, 11:00 AM)30.19 "Hg (Aug 19, 11:00 AM)
Low55 °F (Aug 18, 4:00 AM)61% (Aug 22, 11:00 AM)30.03 "Hg (Aug 17, 4:00 PM)
Average59 °F85%30.12 "Hg
* Reported Aug 17 12:00 Noon — Sep 1 12:00 Noon, Jamestown, Weather by CustomWeather, © 2014

Note: Actual official high and low records may vary slightly from our data, if they occured in-between our weather recording intervals... More about our weather records

Advertising

Jamestown weather history for previous 24 hours

 ConditionsComfort  
Time TempWeatherWind HumidityBarometerVisibility
12:00 PM
Sep 1
60 °FOvercast.14 mph80%30.14 "Hg28 mi
11:00 AM60 °FOvercast.10 mph82%30.16 "Hg31 mi
10:00 AM60 °FOvercast.9 mph74%30.17 "Hg28 mi
9:00 AM59 °FCool.10 mph75%30.16 "HgN/A
8:00 AM58 °FCool.7 mph80%30.15 "HgN/A
7:00 AM58 °FCool.8 mph85%30.14 "HgN/A
5:00 AM58 °FCool.7 mph79%30.08 "HgN/A
4:00 AM58 °FCool.13 mph79%30.08 "HgN/A
3:00 AM58 °FCool.7 mph84%30.08 "HgN/A
2:00 AM57 °FCool.12 mph95%30.09 "HgN/A
1:00 AM58 °FCool.10 mph77%30.10 "HgN/A
11:00 PM
Aug 31
58 °FCool.8 mph89%30.12 "HgN/A
10:00 PM58 °FCool.14 mph94%30.11 "HgN/A
8:00 PM59 °FCool.9 mph80%30.09 "HgN/A
7:00 PM59 °FCool.12 mph80%30.08 "HgN/A
6:00 PM60 °FCool.14 mph74%30.06 "HgN/A
5:00 PM60 °FCool.15 mph80%30.06 "HgN/A
4:00 PM60 °FCool.14 mph75%30.06 "HgN/A
3:00 PM61 °FCool.15 mph75%30.05 "HgN/A
2:00 PM61 °FCool.14 mph77%30.06 "HgN/A
Weather by CustomWeather, © 2014

See weather overviewHow to use our weather pages